Location: Carnetin
(48.9010°N, 2.7059°E)
Time: 05:22:42
(UTC+00:00)

USA 229 - Pass Details

Date: 02 June 2022
Orbit: 938 x 1274 km, 63.4° (Epoch: 24 May)

Event Time Altitude Azimuth Distance (km) Brightness Sun altitude
Rises 20:52:33 0° 315° (NW) 3,892 9.0 -8.9°
Reaches altitude 10° 20:55:17 10° 322° (NW) 2,983 7.7 -9.2°
Maximum altitude 21:02:08 45° 34° (NE) 1,553 4.7 -9.9°
Drops below altitude 10° 21:09:27 10° 106° (ESE) 3,193 5.7 -10.6°
Enters shadow 21:10:41 - 109° (ESE) 3,595 6.0 -10.7°
